TimeCDT,TemperatureF,Dew PointF,Humidity,Sea Level PressureIn,VisibilityMPH,Wind Direction,Wind SpeedMPH,Gust SpeedMPH,PrecipitationIn,Events,Conditions,WindDirDegrees,DateUTC
12:15 AM,44.6,37.4,76,30.07,10.0,Calm,Calm,-,N/A,,Overcast,0,2013-04-05 05:15:00
12:35 AM,44.6,37.4,76,30.07,10.0,Calm,Calm,-,N/A,,Overcast,0,2013-04-05 05:35:00
12:55 AM,44.6,35.6,71,30.07,10.0,Calm,Calm,-,N/A,,Overcast,0,2013-04-05 05:55:00
1:15 AM,42.8,35.6,76,30.07,9.0,Calm,Calm,-,N/A,,Overcast,0,2013-04-05 06:15:00
1:35 AM,42.8,33.8,70,30.08,3.0,Calm,Calm,-,N/A,,Scattered Clouds,0,2013-04-05 06:35:00
1:55 AM,42.8,33.8,70,30.08,0.5,WNW,3.5,-,N/A,,Unknown,290,2013-04-05 06:55:00
2:15 AM,41.0,33.8,76,30.08,0.8,West,4.6,-,N/A,,Unknown,280,2013-04-05 07:15:00
2:35 AM,42.8,33.8,70,30.09,7.0,NW,6.9,-,N/A,,Clear,310,2013-04-05 07:35:00
2:55 AM,41.0,33.8,76,30.09,9.0,WNW,4.6,-,N/A,,Clear,300,2013-04-05 07:55:00
3:15 AM,41.0,33.8,76,30.09,7.0,WNW,3.5,-,N/A,,Clear,300,2013-04-05 08:15:00
3:35 AM,39.2,32.0,75,30.10,1.8,Calm,Calm,-,N/A,,Clear,0,2013-04-05 08:35:00
3:55 AM,39.2,30.2,70,30.10,0.5,Calm,Calm,-,N/A,,Unknown,0,2013-04-05 08:55:00
4:15 AM,37.4,30.2,75,30.10,0.5,Calm,Calm,-,N/A,,Unknown,0,2013-04-05 09:15:00
4:35 AM,37.4,28.4,70,30.11,0.2,Calm,Calm,-,N/A,,Unknown,0,2013-04-05 09:35:00
4:55 AM,37.4,28.4,70,30.11,0.5,West,3.5,-,N/A,,Unknown,270,2013-04-05 09:55:00
5:15 AM,37.4,28.4,70,30.12,0.2,West,3.5,-,N/A,,Unknown,280,2013-04-05 10:15:00
5:35 AM,37.4,28.4,70,30.12,0.2,Calm,Calm,-,N/A,,Unknown,0,2013-04-05 10:35:00
5:55 AM,35.6,26.6,70,30.12,0.2,West,3.5,-,N/A,,Unknown,260,2013-04-05 10:55:00
6:15 AM,35.6,26.6,70,30.13,0.2,West,3.5,-,N/A,,Unknown,270,2013-04-05 11:15:00
6:35 AM,33.8,26.6,75,30.14,0.2,WNW,3.5,-,N/A,,Mostly Cloudy,290,2013-04-05 11:35:00
6:55 AM,35.6,26.6,70,30.14,0.2,Calm,Calm,-,N/A,,Unknown,0,2013-04-05 11:55:00
7:15 AM,35.6,26.6,70,30.15,0.2,Calm,Calm,-,N/A,,Unknown,0,2013-04-05 12:15:00
7:35 AM,37.4,28.4,70,30.16,0.2,Calm,Calm,-,N/A,,Unknown,0,2013-04-05 12:35:00
7:55 AM,39.2,32.0,75,30.16,1.8,Calm,Calm,-,N/A,,Clear,0,2013-04-05 12:55:00
8:15 AM,42.8,35.6,76,30.17,5.0,Calm,Calm,-,N/A,,Clear,0,2013-04-05 13:15:00
8:35 AM,42.8,35.6,76,30.17,10.0,Calm,Calm,-,N/A,,Clear,0,2013-04-05 13:35:00
8:55 AM,44.6,37.4,76,30.17,10.0,Calm,Calm,-,N/A,,Clear,0,2013-04-05 13:55:00
9:15 AM,46.4,35.6,66,30.17,10.0,Calm,Calm,-,N/A,,Clear,0,2013-04-05 14:15:00
9:35 AM,50.0,35.6,58,30.17,10.0,Calm,Calm,-,N/A,,Clear,0,2013-04-05 14:35:00
9:55 AM,53.6,35.6,51,30.17,10.0,NNW,4.6,-,N/A,,Clear,340,2013-04-05 14:55:00
10:15 AM,55.4,35.6,47,30.17,10.0,North,3.5,-,N/A,,Clear,350,2013-04-05 15:15:00
10:35 AM,57.2,33.8,41,30.17,10.0,NNW,4.6,-,N/A,,Clear,330,2013-04-05 15:35:00
10:55 AM,57.2,33.8,41,30.17,10.0,NW,4.6,-,N/A,,Clear,310,2013-04-05 15:55:00
11:15 AM,59.0,33.8,39,30.17,10.0,NNW,6.9,-,N/A,,Clear,340,2013-04-05 16:15:00
11:35 AM,60.8,33.8,36,30.17,10.0,North,5.8,-,N/A,,Clear,360,2013-04-05 16:35:00
11:55 AM,60.8,33.8,36,30.17,10.0,NW,5.8,-,N/A,,Clear,310,2013-04-05 16:55:00
12:15 PM,60.8,33.8,36,30.17,10.0,NNW,4.6,-,N/A,,Clear,340,2013-04-05 17:15:00
12:35 PM,62.6,33.8,34,30.16,10.0,North,4.6,-,N/A,,Clear,10,2013-04-05 17:35:00
12:55 PM,62.6,35.6,37,30.16,10.0,NNW,8.1,-,N/A,,Clear,340,2013-04-05 17:55:00
1:15 PM,62.6,35.6,37,30.16,10.0,North,4.6,-,N/A,,Clear,360,2013-04-05 18:15:00
1:35 PM,62.6,35.6,37,30.15,10.0,NNW,6.9,-,N/A,,Clear,330,2013-04-05 18:35:00
1:55 PM,62.6,35.6,37,30.14,10.0,Calm,Calm,-,N/A,,Clear,0,2013-04-05 18:55:00
2:15 PM,64.4,35.6,34,30.13,9.0,WNW,4.6,-,N/A,,Clear,290,2013-04-05 19:15:00
2:35 PM,64.4,37.4,37,30.13,10.0,West,8.1,-,N/A,,Clear,270,2013-04-05 19:35:00
2:55 PM,64.4,35.6,34,30.12,8.0,East,3.5,-,N/A,,Clear,80,2013-04-05 19:55:00
3:15 PM,64.4,37.4,37,30.11,10.0,SE,4.6,-,N/A,,Clear,130,2013-04-05 20:15:00
3:35 PM,66.2,35.6,32,30.10,9.0,North,8.1,-,N/A,,Clear,350,2013-04-05 20:35:00
3:55 PM,66.2,37.4,35,30.10,10.0,NNW,4.6,-,N/A,,Clear,330,2013-04-05 20:55:00
4:15 PM,66.2,35.6,32,30.09,9.0,Calm,Calm,-,N/A,,Clear,0,2013-04-05 21:15:00
4:35 PM,66.2,35.6,32,30.09,10.0,Calm,Calm,-,N/A,,Clear,0,2013-04-05 21:35:00
4:55 PM,66.2,35.6,32,30.09,10.0,NNW,4.6,-,N/A,,Clear,330,2013-04-05 21:55:00
5:15 PM,66.2,35.6,32,30.09,10.0,NNW,4.6,-,N/A,,Clear,340,2013-04-05 22:15:00
5:35 PM,66.2,35.6,32,30.09,10.0,North,6.9,-,N/A,,Clear,360,2013-04-05 22:35:00
5:55 PM,66.2,35.6,32,30.09,10.0,NNW,3.5,-,N/A,,Clear,340,2013-04-05 22:55:00
6:15 PM,66.2,37.4,35,30.09,10.0,Calm,Calm,-,N/A,,Clear,0,2013-04-05 23:15:00
6:35 PM,64.4,37.4,37,30.09,10.0,West,6.9,-,N/A,,Clear,260,2013-04-05 23:35:00
6:55 PM,62.6,37.4,39,30.09,10.0,WSW,4.6,-,N/A,,Clear,250,2013-04-05 23:55:00
7:15 PM,62.6,35.6,37,30.09,10.0,Calm,Calm,-,N/A,,Clear,0,2013-04-06 00:15:00
7:35 PM,59.0,35.6,42,30.10,10.0,SW,3.5,-,N/A,,Clear,230,2013-04-06 00:35:00
7:55 PM,59.0,35.6,42,30.10,10.0,SW,3.5,-,N/A,,Clear,230,2013-04-06 00:55:00
8:15 PM,57.2,35.6,44,30.10,9.0,Calm,Calm,-,N/A,,Clear,0,2013-04-06 01:15:00
8:35 PM,55.4,35.6,47,30.11,10.0,SSW,3.5,-,N/A,,Clear,210,2013-04-06 01:35:00
8:55 PM,57.2,35.6,44,30.11,10.0,SSW,3.5,-,N/A,,Clear,200,2013-04-06 01:55:00
9:15 PM,57.2,33.8,41,30.12,10.0,Calm,Calm,-,N/A,,Clear,0,2013-04-06 02:15:00
9:35 PM,55.4,35.6,47,30.13,10.0,Calm,Calm,-,N/A,,Clear,0,2013-04-06 02:35:00
9:55 PM,53.6,33.8,47,30.13,10.0,Calm,Calm,-,N/A,,Clear,0,2013-04-06 02:55:00
10:15 PM,53.6,35.6,51,30.13,10.0,Calm,Calm,-,N/A,,Clear,0,2013-04-06 03:15:00
10:35 PM,51.8,33.8,50,30.13,10.0,Calm,Calm,-,N/A,,Clear,0,2013-04-06 03:35:00
10:55 PM,51.8,33.8,50,30.12,10.0,Calm,Calm,-,N/A,,Clear,0,2013-04-06 03:55:00
11:15 PM,51.8,33.8,50,30.11,10.0,Calm,Calm,-,N/A,,Clear,0,2013-04-06 04:15:00
11:35 PM,51.8,33.8,50,30.11,10.0,Calm,Calm,-,N/A,,Clear,0,2013-04-06 04:35:00
11:55 PM,48.2,33.8,58,30.11,10.0,Calm,Calm,-,N/A,,Clear,0,2013-04-06 04:55:00